Weather History for Erie, PA

Change the Weather History Date:

Friday, January 18, 2013

  Actual Average Record
Temperature  
Mean Temperature 28 °F 27 °F  
Max Temperature 36 °F 34 °F 65 °F (1929)
Min Temperature 20 °F 20 °F -10 °F (1994)
Degree Days  
Heating Degree Days 37 38  
Month to date heating degree days 540 676  
Since 1 July heating degree days 2562 2844  
Cooling Degree Days 0 0  
Month to date cooling degree days 0 0  
Year to date cooling degree days 0 0  
Moisture  
Dew Point 11 °F    
Average Humidity 58    
Maximum Humidity 68    
Minimum Humidity 47    
Precipitation  
Precipitation T in 0.09 in 0.93 in (1929)
Month to date precipitation 0.56 1.83  
Year to date precipitation 0.56 1.83  
Snow  
Snow T in 1.00 in - ()
Month to date snowfall 1.3 18.3  
Since 1 July snowfall 24.8 54.5  
Snow Depth T in    
Sea Level Pressure  
Sea Level Pressure 30.33 in    
Wind  
Wind Speed 15 mph (WSW)    
Max Wind Speed 35 mph    
Max Gust Speed 53 mph    
Visibility 10 miles    
Events      
T = Trace of Precipitation, MM = Missing Value Source: NWS Daily Summary

Daily Weather History Graph

Daily Weather History Graph

Search for Another Location

Airport:

Trip Planner

Search our weather history database for the weather conditions in past years. The results will help you decide how hot, cold, wet, or windy it might be!

Date:

Astronomy

Jan. 18, 2013 Rise Set
Actual Time 7:44 AM EST 5:18 PM EST
Civil Twilight 7:14 AM EST 5:48 PM EST
Nautical Twilight 6:39 AM EST 6:23 PM EST
Astronomical Twilight 6:06 AM EST 6:56 PM EST
Moon 11:13 AM EST (1/18) 12:15 AM EST (1/18)
Length of Visible Light 10h 34m
Length of Day
9h 33m
Waxing Crescent, 47% of the Moon is Illuminated
Jan 18
Waxing Crescent
Jan 18
First Quarter
Jan 26
Full
Feb 3
Last Quarter
Feb 10
New

Hourly Weather History & Observations

Time (EST) Temp. Windchill Dew Point Humidity Pressure Visibility Wind Dir Wind Speed Gust Speed Precip Events Conditions
12:51 AM 21.0 °F 7.6 °F 9.0 °F 60% 30.26 in 10.0 mi NW 15.0 mph 26.5 mph N/A   Overcast
1:51 AM 21.0 °F 6.2 °F 7.0 °F 55% 30.31 in 10.0 mi NW 18.4 mph 25.3 mph N/A   Overcast
2:51 AM 21.0 °F 7.6 °F 8.1 °F 57% 30.35 in 10.0 mi WNW 15.0 mph 23.0 mph N/A   Overcast
3:51 AM 19.9 °F 6.7 °F 7.0 °F 57% 30.37 in 10.0 mi WNW 13.8 mph 20.7 mph N/A   Overcast
4:51 AM 19.9 °F 5.7 °F 7.0 °F 57% 30.40 in 10.0 mi WNW 16.1 mph 25.3 mph 0.00 in   Overcast
5:51 AM 19.9 °F 7.9 °F 5.0 °F 52% 30.42 in 10.0 mi WNW 11.5 mph 19.6 mph N/A   Overcast
6:51 AM 19.9 °F 6.7 °F 6.1 °F 55% 30.45 in 10.0 mi West 13.8 mph 25.3 mph N/A   Overcast
7:51 AM 19.9 °F 7.3 °F 7.0 °F 57% 30.46 in 10.0 mi WNW 12.7 mph 20.7 mph N/A   Overcast
8:51 AM 19.4 °F 7.2 °F 6.8 °F 58% 30.44 in 10.0 mi West 11.5 mph - N/A   Overcast
9:51 AM 21.0 °F 9.9 °F 8.1 °F 57% 30.49 in 10.0 mi West 10.4 mph 16.1 mph N/A   Mostly Cloudy
10:51 AM 23.0 °F 14.7 °F 10.9 °F 60% 30.48 in 10.0 mi West 6.9 mph - N/A   Overcast
11:07 AM 23.0 °F 13.1 °F 10.4 °F 59% 30.44 in 10.0 mi West 9.2 mph 17.3 mph N/A   Overcast
11:51 AM 24.1 °F 13.1 °F 12.0 °F 60% 30.44 in 10.0 mi WSW 11.5 mph 18.4 mph N/A   Overcast
12:51 PM 26.1 °F 17.6 °F 14.0 °F 60% 30.41 in 10.0 mi SW 8.1 mph - N/A   Overcast
1:51 PM 27.0 °F 15.6 °F 14.0 °F 58% 30.39 in 10.0 mi SSW 13.8 mph 19.6 mph N/A   Overcast
2:51 PM 28.0 °F 17.5 °F 14.0 °F 56% 30.35 in 10.0 mi SW 12.7 mph - N/A   Mostly Cloudy
3:51 PM 30.0 °F 19.1 °F 12.9 °F 49% 30.31 in 10.0 mi SSW 15.0 mph 25.3 mph N/A   Partly Cloudy
4:51 PM 30.0 °F 20.5 °F 12.9 °F 49% 30.28 in 10.0 mi South 11.5 mph - N/A   Mostly Cloudy
5:51 PM 28.9 °F 17.3 °F 12.9 °F 51% 30.26 in 8.0 mi South 16.1 mph 21.9 mph N/A   Mostly Cloudy
6:51 PM 30.0 °F 17.2 °F 14.0 °F 51% 30.22 in 10.0 mi South 20.7 mph 26.5 mph N/A   Clear
7:51 PM 30.0 °F 16.3 °F 15.1 °F 54% 30.19 in 10.0 mi South 24.2 mph 34.5 mph N/A   Clear
8:51 PM 30.9 °F 17.5 °F 16.0 °F 54% 30.15 in 10.0 mi South 24.2 mph 33.4 mph N/A   Clear
9:51 PM 32.0 °F 18.6 °F 15.1 °F 50% 30.12 in 10.0 mi South 25.3 mph 34.5 mph N/A   Clear
10:51 PM 33.8 °F 21.3 °F 15.8 °F 48% 30.06 in 10.0 mi South 24.2 mph 34.5 mph N/A   Overcast
11:51 PM 35.1 °F 24.5 °F 15.1 °F 44% 30.07 in 10.0 mi South 18.4 mph 31.1 mph N/A   Overcast